Location: Unspecified
(49.9820°N, 20.4363°E)
Time: 21:32:04
(UTC+02:00)

Injun/Solrad 3 - Visible Passes

Search period start: 15 May 2026 00:00
Search period end: 25 May 2026 00:00
Orbit: 868 x 988 km, 66.8° (Epoch: 15 May)

Date Brightness Start Highest point End Pass type
(mag) Time Alt. Az. Time Alt. Az. Time Alt. Az.
15 May 8.0 00:37:55 10° NW 00:44:23 85° NE 00:48:02 28° SE visible
15 May 9.2 02:25:22 10° WNW 02:30:12 23° WSW 02:31:37 21° SW visible
15 May 10.3 21:15:37 10° NNW 21:19:53 18° N 21:24:10 10° NE visible
15 May 9.3 23:02:32 10° NNW 23:08:21 35° NE 23:14:13 10° E visible
16 May 8.0 00:49:00 10° NW 00:55:24 72° WSW 00:58:16 35° SSE visible
16 May 9.6 02:37:19 10° WNW 02:40:52 15° WSW 02:41:51 15° WSW visible
16 May 10.1 21:26:54 10° NNW 21:31:28 20° NNE 21:36:05 10° ENE visible
16 May 8.9 23:13:32 10° NNW 23:19:40 44° NE 23:24:59 14° ESE visible
17 May 8.2 01:00:09 10° NW 01:06:21 52° WSW 01:08:35 36° SSW visible
17 May 9.9 21:38:04 10° NNW 21:43:01 23° NNE 21:48:00 10° ENE visible
17 May 8.5 23:24:33 10° NNW 23:30:53 58° NE 23:35:21 20° ESE visible
18 May 8.7 01:11:24 10° NW 01:17:12 37° WSW 01:18:57 31° SW visible
18 May 9.7 21:49:09 10° NNW 21:54:30 27° NNE 21:59:53 10° E visible
18 May 8.1 23:35:34 10° NW 23:42:02 77° NE 23:45:47 27° SE visible
19 May 9.1 01:22:50 10° NW 01:27:58 26° WSW 01:29:22 24° SW visible
19 May 9.3 22:00:12 10° NNW 22:05:55 33° NE 22:11:40 10° E visible
19 May 8.0 23:46:38 10° NW 23:53:05 80° WSW 23:56:15 32° SSE visible
20 May 9.6 01:34:36 10° WNW 01:38:39 18° WSW 01:39:52 17° WSW visible
20 May 9.0 22:11:12 10° NNW 22:17:15 41° NE 22:23:10 11° ESE visible
20 May 8.2 23:57:46 10° NW 00:04:03 58° WSW 00:06:47 34° S visible
21 May 9.9 01:47:21 10° W 01:49:15 11° W 01:50:23 11° WSW visible
21 May 8.6 22:22:12 10° NNW 22:28:30 53° NE 22:33:44 15° ESE visible
22 May 8.6 00:08:59 10° NW 00:14:56 41° WSW 00:17:21 30° SSW visible
22 May 8.2 22:33:14 10° NW 22:39:40 70° NE 22:44:20 20° SE visible
23 May 9.1 00:20:20 10° NW 00:25:44 29° WSW 00:27:57 24° SW visible
23 May 9.4 20:57:51 10° NNW 21:03:28 31° NNE 21:09:05 10° E visible
23 May 8.0 22:44:16 10° NW 22:50:45 87° SW 22:54:59 23° SSE visible
24 May 9.6 00:31:58 10° WNW 00:36:27 20° WSW 00:38:36 17° SW visible
24 May 9.0 21:08:52 10° NNW 21:14:49 38° NE 21:20:48 10° ESE visible
24 May 8.2 22:55:23 10° NW 23:01:45 65° WSW 23:05:39 25° SSE visible
